Weather History for Myrtle Beach, SC

Change the Weather History Date:

Wednesday, June 26, 2013

  Actual Average Record
Temperature  
Mean Temperature 80 °F -  
Max Temperature 87 °F 83 °F 104 °F (1952)
Min Temperature 73 °F 68 °F 65 °F (1955)
Cooling Degree Days 15    
Growing Degree Days 30 (Base 50)    
Moisture  
Dew Point 72 °F    
Average Humidity 82    
Maximum Humidity 94    
Minimum Humidity 58    
Precipitation  
Precipitation 0.00 in - - ()
Sea Level Pressure  
Sea Level Pressure 30.04 in    
Wind  
Wind Speed 7 mph (WSW)    
Max Wind Speed 17 mph    
Max Gust Speed 17 mph    
Visibility 10 miles    
Events Rain , Thunderstorm    
Averages and records for this station are not official NWS values.
T = Trace of Precipitation, MM = Missing Value Source: NWS Daily Summary

Daily Weather History Graph

Daily Weather History Graph

Search for Another Location

Airport:

Trip Planner

Search our weather history database for the weather conditions in past years. The results will help you decide how hot, cold, wet, or windy it might be!

Date:

Astronomy

Jun. 26, 2013 Rise Set
Actual Time 6:07 AM EDT 8:30 PM EDT
Civil Twilight 5:38 AM EDT 8:59 PM EDT
Nautical Twilight 5:02 AM EDT 9:34 PM EDT
Astronomical Twilight 4:23 AM EDT 10:13 PM EDT
Moon 11:05 PM EDT (6/26) 9:45 AM EDT (6/26)
Length of Visible Light 15h 20m
Length of Day
14h 22m
Waning Gibbous, 85% of the Moon is Illuminated
Jun 26
Waning Gibbous
Jun 30
Last Quarter
Jul 8
New
Jul 15
First Quarter
Jul 22
Full

Hourly Weather History & Observations

Time (EDT) Temp. Heat Index Dew Point Humidity Pressure Visibility Wind Dir Wind Speed Gust Speed Precip Events Conditions
12:15 AM 78.8 °F - 73.4 °F 83% 30.05 in 10.0 mi SSW 11.5 mph 17.3 mph N/A   Clear
12:35 AM 78.8 °F - 73.4 °F 83% 30.05 in 10.0 mi SSW 9.2 mph - N/A   Clear
12:55 AM 78.8 °F - 73.4 °F 83% 30.05 in 10.0 mi SW 11.5 mph 16.1 mph N/A   Clear
1:15 AM 78.8 °F - 73.4 °F 83% 30.05 in 10.0 mi SSW 6.9 mph - N/A   Clear
1:35 AM 78.8 °F - 73.4 °F 83% 30.05 in 10.0 mi WSW 4.6 mph - N/A   Clear
1:55 AM 77.0 °F - 71.6 °F 83% 30.06 in 10.0 mi West 5.8 mph - N/A   Clear
2:15 AM 75.2 °F - 71.6 °F 89% 30.06 in 10.0 mi WSW 3.5 mph - N/A   Clear
2:35 AM 75.2 °F - 71.6 °F 89% 30.06 in 10.0 mi WSW 5.8 mph - N/A   Clear
2:55 AM 75.2 °F - 71.6 °F 89% 30.06 in 10.0 mi West 3.5 mph - N/A   Clear
3:15 AM 75.2 °F - 71.6 °F 89% 30.06 in 10.0 mi West 3.5 mph - N/A   Scattered Clouds
3:35 AM 75.2 °F - 71.6 °F 89% 30.05 in 10.0 mi Calm Calm - N/A   Partly Cloudy
3:55 AM 75.2 °F - 71.6 °F 89% 30.05 in 10.0 mi SSW 4.6 mph - N/A   Partly Cloudy
4:15 AM 75.2 °F - 71.6 °F 89% 30.05 in 10.0 mi WSW 3.5 mph - N/A   Partly Cloudy
4:35 AM 75.2 °F - 71.6 °F 89% 30.05 in 10.0 mi WSW 4.6 mph - N/A   Clear
4:55 AM 73.4 °F - 71.6 °F 94% 30.05 in 10.0 mi WSW 4.6 mph - N/A   Clear
5:15 AM 73.4 °F - 71.6 °F 94% 30.05 in 10.0 mi SW 4.6 mph - N/A   Clear
5:35 AM 73.4 °F - 71.6 °F 94% 30.05 in 10.0 mi SSW 3.5 mph - N/A   Clear
5:50 AM 73.4 °F - 71.6 °F 94% 30.06 in 10.0 mi WSW 4.6 mph - N/A   Clear
6:45 AM 75.2 °F - 71.6 °F 89% 30.07 in 10.0 mi WSW 5.8 mph - N/A   Partly Cloudy
7:45 AM 75.2 °F - 71.6 °F 89% 30.07 in 10.0 mi WSW 4.6 mph - N/A   Clear
8:50 AM 78.8 °F - 71.6 °F 78% 30.08 in 10.0 mi WSW 6.9 mph - N/A   Clear
9:45 AM 82.4 °F 87.2 °F 71.6 °F 70% 30.06 in 10.0 mi WSW 9.2 mph - N/A   Clear
10:45 AM 84.2 °F 89.6 °F 71.6 °F 66% 30.05 in 10.0 mi West 10.4 mph - N/A   Clear
11:45 AM 86.0 °F 90.4 °F 69.8 °F 58% 30.04 in 10.0 mi WSW 9.2 mph - N/A   Partly Cloudy
12:45 PM 87.8 °F 93.8 °F 71.6 °F 58% 30.04 in 10.0 mi WSW 6.9 mph - N/A   Scattered Clouds
1:45 PM 87.8 °F 95.6 °F 73.4 °F 62% 30.02 in 10.0 mi WSW 6.9 mph - N/A   Scattered Clouds
3:00 PM 80.6 °F 84.6 °F 71.6 °F 74% 30.01 in 1.0 mi North 12.7 mph - N/A Rain , Thunderstorm Rain
3:26 PM 77.0 °F - 71.6 °F 83% 30.01 in 8.0 mi East 11.5 mph 17.3 mph N/A   Mostly Cloudy
3:45 PM 77.0 °F - 73.4 °F 89% 30.01 in 8.0 mi ESE 10.4 mph 17.3 mph N/A Thunderstorm Mostly Cloudy
4:45 PM 78.8 °F - 73.4 °F 83% 29.99 in 8.0 mi South 17.3 mph - N/A Thunderstorm Mostly Cloudy
5:45 PM 78.8 °F - 73.4 °F 83% 29.97 in 10.0 mi SSW 11.5 mph - N/A   Clear
6:45 PM 80.6 °F 85.4 °F 73.4 °F 79% 29.97 in 10.0 mi SW 9.2 mph 17.3 mph N/A   Clear
7:45 PM 80.6 °F 85.4 °F 73.4 °F 79% 29.97 in 10.0 mi SW 5.8 mph - N/A   Clear
8:45 PM 78.8 °F - 71.6 °F 78% 29.98 in 10.0 mi SW 8.1 mph - N/A   Clear
10:35 PM 77.0 °F - 69.8 °F 78% 30.01 in 10.0 mi SW 6.9 mph - N/A   Clear
10:55 PM 77.0 °F - 69.8 °F 78% 30.01 in 10.0 mi SSW 5.8 mph - N/A   Clear
11:15 PM 75.2 °F - 69.8 °F 83% 30.02 in 10.0 mi WSW 5.8 mph - N/A   Partly Cloudy
11:35 PM 75.2 °F - 69.8 °F 83% 30.03 in 10.0 mi NNW 5.8 mph - N/A   Mostly Cloudy
11:55 PM 75.2 °F - 69.8 °F 83% 30.02 in 10.0 mi NNW 8.1 mph - N/A   Overcast